Hourly Weather Muritiba

Today, 17 September, Friday

Time Temperature Precipitation Wind Pressure Humidity
00:00 +21°C° 0.1 mm 1 mps 746 mmHg 98%
01:00 +21°C° 0.1 mm 1 mps 746 mmHg 97%
02:00 +21°C° 0.1 mm 1 mps 745 mmHg 95%
03:00 +21°C° 0 mm 1 mps 745 mmHg 94%
04:00 +21°C° 0.1 mm 1 mps 746 mmHg 93%
05:00 +22°C° 0.1 mm 1 mps 746 mmHg 91%
06:00 +22°C° 0.1 mm 1 mps 746 mmHg 90%
07:00 +24°C° 0.1 mm 2 mps 746 mmHg 78%
08:00 +26°C° 0.1 mm 3 mps 747 mmHg 65%
09:00 +28°C° 0.1 mm 4 mps 747 mmHg 53%
10:00 +28°C° 0 mm 4 mps 747 mmHg 49%
11:00 +29°C° 0 mm 4 mps 746 mmHg 46%
12:00 +30°C° 0 mm 4 mps 746 mmHg 42%
13:00 +29°C° 0 mm 4 mps 745 mmHg 43%
14:00 +29°C° 0 mm 4 mps 745 mmHg 44%
15:00 +29°C° 0 mm 4 mps 744 mmHg 45%
16:00 +27°C° 0 mm 4 mps 744 mmHg 52%
17:00 +25°C° 0 mm 3 mps 744 mmHg 59%
18:00 +22°C° 0 mm 3 mps 744 mmHg 66%
19:00 +21°C° 0 mm 2 mps 745 mmHg 72%
20:00 +20°C° 0 mm 2 mps 745 mmHg 77%
21:00 +19°C° 0 mm 1 mps 745 mmHg 83%
22:00 +19°C° 0 mm 1 mps 745 mmHg 85%
23:00 +19°C° 0 mm 1 mps 745 mmHg 87%

Tomorrow, 18 September, Saturday

Time Temperature Precipitation Wind Pressure Humidity
00:00 +18°C° 0 mm 1 mps 745 mmHg 89%
01:00 +18°C° 0 mm 1 mps 745 mmHg 91%
02:00 +16°C° 0 mm 1 mps 744 mmHg 92%
03:00 +16°C° 0 mm 1 mps 744 mmHg 93%
04:00 +18°C° 0 mm 1 mps 744 mmHg 88%
05:00 +19°C° 0 mm 1 mps 744 mmHg 84%
06:00 +20°C° 0 mm 1 mps 745 mmHg 79%
07:00 +21°C° 0 mm 1 mps 745 mmHg 74%
08:00 +23°C° 0 mm 2 mps 745 mmHg 70%
09:00 +24°C° 0 mm 2 mps 746 mmHg 65%
10:00 +26°C° 0 mm 2 mps 745 mmHg 59%
11:00 +28°C° 0 mm 3 mps 745 mmHg 54%
12:00 +29°C° 0 mm 3 mps 744 mmHg 48%
13:00 +30°C° 0 mm 3 mps 743 mmHg 46%
14:00 +30°C° 0 mm 3 mps 743 mmHg 44%
15:00 +30°C° 0 mm 4 mps 742 mmHg 41%
16:00 +28°C° 0 mm 3 mps 742 mmHg 51%
17:00 +25°C° 0 mm 3 mps 742 mmHg 60%
18:00 +23°C° 0 mm 2 mps 743 mmHg 69%
19:00 +21°C° 0 mm 2 mps 743 mmHg 76%
20:00 +20°C° 0 mm 1 mps 743 mmHg 82%
21:00 +19°C° 0 mm 1 mps 744 mmHg 89%
22:00 +19°C° 0 mm 1 mps 744 mmHg 91%
23:00 +19°C° 0 mm 1 mps 744 mmHg 93%

Day after tomorrow, 19 September, Sunday

Time Temperature Precipitation Wind Pressure Humidity
00:00 +19°C° 0 mm 1 mps 743 mmHg 95%
01:00 +18°C° 0 mm 1 mps 743 mmHg 96%
02:00 +18°C° 0 mm 1 mps 743 mmHg 96%
03:00 +18°C° 0 mm 1 mps 742 mmHg 97%
04:00 +18°C° 0 mm 1 mps 743 mmHg 96%
05:00 +19°C° 0 mm 1 mps 743 mmHg 96%
06:00 +17°C° 0 mm 0 mps 743 mmHg 96%
07:00 +22°C° 0 mm 1 mps 744 mmHg 81%
08:00 +25°C° 0 mm 1 mps 744 mmHg 66%
09:00 +28°C° 0 mm 1 mps 744 mmHg 51%
10:00 +30°C° 0 mm 2 mps 744 mmHg 43%
11:00 +32°C° 0 mm 2 mps 743 mmHg 36%
12:00 +34°C° 0 mm 2 mps 742 mmHg 29%
13:00 +34°C° 0 mm 3 mps 742 mmHg 30%
14:00 +34°C° 0 mm 4 mps 741 mmHg 31%
15:00 +33°C° 0 mm 4 mps 741 mmHg 32%
16:00 +30°C° 0 mm 4 mps 741 mmHg 46%
17:00 +27°C° 0 mm 3 mps 741 mmHg 60%
18:00 +24°C° 0 mm 3 mps 742 mmHg 75%
19:00 +23°C° 0 mm 2 mps 742 mmHg 82%
20:00 +21°C° 0 mm 2 mps 742 mmHg 89%
21:00 +21°C° 0 mm 1 mps 743 mmHg 96%
22:00 +21°C° 0 mm 1 mps 743 mmHg 97%
23:00 +20°C° 0 mm 1 mps 743 mmHg 97%

20 September, Monday

Time Temperature Precipitation Wind Pressure Humidity
00:00 +20°C° 0 mm 1 mps 743 mmHg 98%
01:00 +20°C° 0 mm 1 mps 742 mmHg 97%
02:00 +19°C° 0 mm 0 mps 742 mmHg 95%
03:00 +19°C° 0 mm 0 mps 742 mmHg 94%
04:00 +19°C° 0 mm 0 mps 742 mmHg 91%
05:00 +20°C° 0 mm 0 mps 743 mmHg 88%
06:00 +22°C° 0 mm 1 mps 743 mmHg 85%
07:00 +24°C° 0 mm 1 mps 743 mmHg 75%
08:00 +26°C° 0 mm 1 mps 744 mmHg 65%
09:00 +27°C° 0 mm 1 mps 745 mmHg 55%
10:00 +29°C° 0 mm 2 mps 744 mmHg 47%
11:00 +31°C° 0 mm 3 mps 743 mmHg 39%
12:00 +34°C° 0 mm 3 mps 743 mmHg 31%
13:00 +34°C° 0 mm 4 mps 742 mmHg 32%
14:00 +33°C° 0 mm 4 mps 741 mmHg 33%
15:00 +33°C° 0 mm 4 mps 741 mmHg 34%
16:00 +29°C° 0 mm 4 mps 741 mmHg 46%
17:00 +27°C° 0 mm 3 mps 742 mmHg 59%
18:00 +24°C° 0 mm 2 mps 742 mmHg 72%
19:00 +23°C° 0 mm 2 mps 742 mmHg 79%
20:00 +21°C° 0 mm 2 mps 743 mmHg 87%
21:00 +20°C° 0 mm 1 mps 743 mmHg 94%
22:00 +20°C° 0 mm 1 mps 743 mmHg 95%
23:00 +20°C° 0 mm 1 mps 743 mmHg 96%

21 September, Tuesday

Time Temperature Precipitation Wind Pressure Humidity
00:00 +20°C° 0 mm 1 mps 743 mmHg 96%
01:00 +20°C° 0 mm 1 mps 743 mmHg 97%
02:00 +20°C° 0 mm 1 mps 743 mmHg 97%
03:00 +19°C° 0 mm 1 mps 742 mmHg 97%
04:00 +20°C° 0 mm 1 mps 743 mmHg 96%
05:00 +20°C° 0 mm 1 mps 743 mmHg 95%
06:00 +18°C° 0 mm 0 mps 743 mmHg 93%
07:00 +23°C° 0 mm 1 mps 743 mmHg 78%
08:00 +26°C° 0 mm 1 mps 744 mmHg 63%
09:00 +29°C° 0 mm 1 mps 744 mmHg 48%
10:00 +31°C° 0 mm 2 mps 743 mmHg 42%
11:00 +34°C° 0 mm 2 mps 742 mmHg 36%
12:00 +36°C° 0 mm 2 mps 741 mmHg 30%
13:00 +36°C° 0 mm 3 mps 741 mmHg 31%
14:00 +36°C° 0 mm 3 mps 740 mmHg 32%
15:00 +36°C° 0 mm 4 mps 739 mmHg 33%
16:00 +31°C° 0 mm 3 mps 740 mmHg 47%
17:00 +28°C° 0 mm 3 mps 740 mmHg 61%
18:00 +25°C° 0 mm 3 mps 740 mmHg 76%
19:00 +24°C° 0 mm 2 mps 741 mmHg 82%
20:00 +23°C° 0 mm 1 mps 741 mmHg 89%
21:00 +22°C° 0 mm 1 mps 741 mmHg 96%
22:00 +21°C° 0 mm 1 mps 741 mmHg 97%
23:00 +21°C° 0 mm 1 mps 741 mmHg 97%

22 September, Wednesday

Time Temperature Precipitation Wind Pressure Humidity
00:00 +21°C° 0 mm 1 mps 741 mmHg 98%
01:00 +18°C° 0 mm 0 mps 741 mmHg 98%
02:00 +18°C° 0 mm 0 mps 740 mmHg 98%
03:00 +18°C° 0 mm 0 mps 740 mmHg 98%
04:00 +18°C° 0 mm 0 mps 740 mmHg 97%
05:00 +20°C° 0 mm 1 mps 741 mmHg 96%
06:00 +20°C° 0 mm 1 mps 741 mmHg 95%
07:00 +23°C° 0 mm 1 mps 741 mmHg 78%
08:00 +27°C° 0 mm 1 mps 741 mmHg 61%
09:00 +30°C° 0 mm 2 mps 741 mmHg 45%
10:00 +32°C° 0 mm 2 mps 741 mmHg 37%
11:00 +36°C° 0 mm 2 mps 740 mmHg 30%
12:00 +38°C° 0 mm 2 mps 739 mmHg 23%
13:00 +39°C° 0 mm 2 mps 738 mmHg 22%
14:00 +39°C° 0 mm 2 mps 738 mmHg 21%
15:00 +39°C° 0 mm 2 mps 737 mmHg 21%
16:00 +35°C° 0 mm 2 mps 737 mmHg 36%
17:00 +31°C° 0 mm 2 mps 737 mmHg 51%
18:00 +27°C° 0 mm 2 mps 738 mmHg 66%
19:00 +25°C° 0 mm 1 mps 738 mmHg 76%
20:00 +24°C° 0 mm 1 mps 739 mmHg 85%
21:00 +23°C° 0 mm 1 mps 739 mmHg 94%
22:00 +22°C° 0 mm 1 mps 739 mmHg 95%
23:00 +22°C° 0 mm 1 mps 740 mmHg 96%
Show more

We Need Your Consent

Meteoprog and our Service Providers may store and access personal data such as cookies, device identifiers or other similar technologies on your device and process such data to personalise content and ads, as well as provide social media features and to analyse the traffic.

  • Store and/or access information on your device

    Cookies, device identifiers or other information can be stored or accessed on your device for the purposes indicated above.

  • Personalised ads and content, ad and content measurement, audience insights, and products development

    Ads and content can be personalised based on a profile. More data can be added to better personalise ads and content. Ad and content performance can be measured. Insights about the audience who saw the ads and content can be derived. Such data can be used to develop or improve user’s experience, systems and software.

By clicking ‘I Agree’ you will allow the use of indicated cookies, device identifiers, web beacons or other similar technologies. Your settings can be changed in the browser on your device.

For certain purposes, legitimate interests may be relied on, rather than consent. You can read more about this in our Privacy and Cookie Policy.